GFSCGP_925_thetae_057.txt.gz
Theta_e
313 312 313 313 312 314 316 316 316 315 314 313 312 312 311 308 306 305 304 304 303 302 301 303 306 307 308 310 313 314 314 313 315 311 309 306 303 304 305 306 307 307 307 307
314 314 313 313 313 314 315 315 315 314 313 312 312 312 311 309 309 308 307 306 303 300 299 303 305 306 308 311 311 311 311 309 307 306 305 303 301 299 300 300 301 302 301 300
315 316 315 315 316 316 315 316 315 316 314 312 312 313 312 311 310 308 307 307 304 301 300 300 304 305 307 309 310 310 309 308 306 305 303 299 296 295 294 294 294 293 294 293
315 314 315 315 315 315 316 314 315 316 316 316 312 318 314 312 311 309 309 306 303 300 300 301 302 304 305 308 307 307 307 306 305 304 302 300 295 292 291 291 290 290 290 289
316 314 315 316 315 314 315 314 314 314 314 314 314 314 314 314 315 311 309 304 301 300 300 301 301 303 304 305 304 305 305 304 302 302 300 297 294 291 290 289 288 288 288 288
313 312 312 314 311 313 311 313 313 312 314 317 314 315 317 316 316 315 310 304 301 300 300 299 301 301 301 301 302 302 301 299 298 298 297 296 293 289 288 288 288 287 287 286
314 312 313 311 313 313 314 315 319 319 317 319 314 316 318 315 313 312 309 305 301 300 299 297 296 296 297 297 299 300 300 298 299 297 296 294 291 289 289 288 288 287 286 286
316 317 313 311 312 314 313 314 318 319 321 319 312 316 317 312 308 307 307 305 301 299 298 296 295 294 295 295 296 296 297 295 296 296 294 292 291 290 289 289 288 287 286 285
316 316 312 311 313 314 312 315 315 320 303 311 317 315 313 309 307 307 305 303 301 299 296 295 293 293 293 293 293 294 294 294 293 293 292 291 290 290 289 288 287 286 286 285
317 322 311 310 312 312 313 312 316 315 317 319 318 317 320 313 310 306 304 303 301 298 296 294 293 292 292 292 292 292 292 292 292 292 291 291 290 290 289 287 286 285 285 285
314 320 313 310 312 315 314 315 315 316 315 318 317 320 313 315 311 308 304 303 301 299 295 294 293 292 292 292 291 291 291 291 291 291 291 290 290 289 288 286 285 285 285 286
314 318 311 313 310 309 313 315 314 320 318 314 316 322 308 309 310 306 305 303 302 299 296 294 293 291 291 290 290 290 290 290 290 290 290 289 289 288 287 286 285 286 286 285
316 318 317 315 313 310 312 313 316 316 312 317 322 322 306 307 309 305 303 302 301 299 296 294 293 291 291 290 289 289 289 289 289 289 289 288 287 287 286 286 285 286 286 285
316 317 318 324 320 314 312 312 312 315 319 319 321 321 315 308 309 306 303 301 301 299 297 295 293 292 291 290 289 288 288 289 289 289 288 288 287 287 286 286 286 286 285 285
318 320 318 318 317 315 311 312 313 315 316 319 319 319 318 315 307 306 304 301 300 299 297 295 294 293 291 289 289 288 288 289 289 288 288 288 287 287 286 286 286 286 285 284
315 320 316 320 316 316 319 318 312 312 314 316 316 317 313 312 311 306 304 302 302 301 299 297 295 293 291 290 289 288 288 288 288 288 288 288 287 287 286 286 286 285 285 284
314 314 316 322 314 316 319 318 318 319 315 313 315 315 311 312 310 306 304 304 303 302 300 298 296 294 292 291 289 288 288 288 288 288 288 288 287 286 286 286 286 285 284 284
312 311 315 321 317 320 316 311 314 317 317 316 314 315 313 311 310 309 306 305 303 302 301 299 297 295 292 291 290 289 288 288 288 287 287 288 287 287 286 286 286 285 284 284
310 311 317 319 321 318 316 306 312 313 316 314 315 314 314 309 305 305 301 302 304 302 301 300 298 296 293 291 290 289 287 287 287 287 287 287 287 287 286 286 285 285 284 284
305 308 313 316 318 321 310 301 300 307 316 304 311 313 313 302 309 314 300 299 299 299 299 297 297 296 294 291 290 289 287 288 288 287 287 288 288 287 287 286 286 285 285 284
304 306 311 313 317 314 304 296 297 311 309 290 294 298 300 305 307 301 297 299 297 298 298 299 298 296 295 293 290 289 288 287 288 288 288 288 288 287 287 287 286 286 284 283
308 310 310 312 316 316 297 297 308 301 295 293 299 297 299 297 295 296 297 296 295 295 296 297 295 295 294 294 291 289 288 289 289 288 288 288 287 287 286 286 286 285 284 282
308 309 309 310 312 296 293 296 294 295 295 295 297 297 294 293 294 292 291 290 290 290 289 291 291 291 291 292 292 290 291 290 289 288 288 287 287 286 286 285 285 283 282 281
300 298 305 305 301 297 295 296 295 292 291 291 292 294 292 291 290 288 287 288 287 287 287 289 290 288 289 292 293 294 292 291 289 288 287 287 286 285 285 284 284 283 281 279
296 298 300 300 296 294 295 294 297 294 290 290 290 291 290 288 287 287 286 285 286 286 288 289 289 288 289 290 290 289 289 289 289 288 287 286 285 284 283 282 282 281 281 280
294 299 301 302 298 299 298 295 293 295 293 289 290 290 288 288 288 286 285 285 286 286 287 287 287 287 287 288 287 287 287 287 287 286 284 284 283 282 281 280 278 278 277 276

GFSCGP_925_thetae_060.txt.gz
Theta_e
312 312 313 313 310 312 313 314 315 314 313 312 311 311 311 307 305 304 303 303 303 302 301 303 305 306 310 311 312 313 314 314 315 315 311 309 310 311 311 311 311 311 311 310
312 312 312 312 312 312 313 314 313 312 312 311 311 311 309 308 307 307 306 305 304 300 299 301 304 306 309 310 311 311 314 312 308 309 308 308 305 305 305 306 307 306 305 303
314 315 313 313 314 314 313 313 313 315 313 311 311 312 311 310 308 307 308 307 305 303 300 300 302 305 307 309 310 310 311 309 306 309 308 304 302 300 299 301 301 300 297 295
313 313 314 314 314 314 316 312 314 315 315 316 311 317 313 311 310 308 309 307 305 302 300 301 302 303 306 308 310 309 308 308 307 306 306 306 300 295 294 295 294 293 292 291
314 314 315 314 315 313 315 313 313 314 313 313 313 313 314 311 312 311 311 307 304 301 300 301 302 304 306 308 309 309 309 306 304 305 304 300 295 295 292 291 290 289 289 289
312 311 312 314 312 313 311 313 312 311 312 315 314 314 315 313 314 312 312 308 303 300 300 301 302 304 306 308 307 308 308 305 304 303 302 298 299 292 289 289 288 288 287 287
313 312 312 310 313 312 312 314 317 318 315 318 312 313 316 313 313 311 312 307 301 300 299 300 299 301 301 303 304 304 303 301 301 301 299 297 296 292 290 288 287 286 286 286
316 316 312 310 313 314 312 313 316 316 318 317 312 316 316 311 310 309 306 305 300 299 299 299 300 300 299 300 301 302 301 300 298 298 296 294 292 290 289 289 288 287 287 286
314 315 311 310 311 313 312 314 314 318 301 310 316 314 313 309 309 307 307 303 299 299 299 298 298 298 297 297 298 300 299 298 297 296 295 292 291 290 289 288 288 287 287 286
314 317 311 310 311 311 311 310 315 313 315 317 317 316 319 315 311 309 306 303 299 298 296 296 296 295 295 296 297 298 299 298 297 295 294 292 290 289 289 288 287 287 286 285
313 317 313 310 312 314 313 313 313 314 312 315 315 319 311 314 311 310 308 303 299 298 295 295 294 294 294 294 295 296 296 296 294 294 293 291 290 289 288 287 287 286 285 285
312 316 312 313 310 308 311 314 313 317 316 315 315 320 308 310 310 309 308 303 300 298 295 293 293 292 291 291 292 291 292 293 293 292 292 290 290 289 288 287 286 286 285 285
314 318 318 317 316 310 312 312 315 314 310 318 317 320 305 307 310 308 306 302 300 297 294 293 292 291 291 290 290 290 290 291 291 291 291 290 289 288 287 287 286 285 285 284
315 316 317 323 319 314 313 311 312 316 318 318 318 320 314 309 310 308 305 301 299 297 295 293 292 291 291 290 289 289 289 290 290 290 290 289 289 288 287 286 285 284 284 285
318 321 318 317 314 312 312 314 313 316 317 320 319 317 317 315 310 310 305 301 299 297 295 294 293 292 291 290 289 289 289 289 289 289 288 289 288 287 286 285 285 284 284 285
316 320 317 319 315 315 317 316 310 313 315 316 317 317 313 312 311 309 305 302 300 299 297 296 295 293 292 291 289 288 288 288 289 288 287 287 287 286 286 285 284 284 284 285
316 317 316 322 317 316 319 319 318 317 312 313 316 315 314 311 310 310 309 303 302 301 299 297 295 294 293 291 290 289 288 288 288 287 287 287 286 286 286 285 284 284 284 284
313 315 317 322 317 321 317 313 316 317 317 316 313 313 313 311 311 309 306 303 302 302 301 298 296 295 293 292 290 289 288 288 287 287 287 286 286 286 286 285 285 284 284 284
312 312 317 320 321 317 315 308 310 313 316 313 315 315 315 313 305 310 303 303 304 302 301 300 298 296 293 291 290 288 287 287 287 287 287 287 287 286 286 285 285 284 284 284
305 312 315 316 319 322 311 302 301 308 316 300 310 313 311 304 311 314 308 300 299 299 299 298 297 295 291 290 289 288 287 287 287 287 287 287 287 287 286 286 285 285 285 285
307 306 314 316 318 315 307 298 299 314 310 290 294 296 302 304 306 298 296 298 296 296 296 296 295 292 290 290 289 288 287 287 288 287 287 288 288 287 287 286 286 286 285 283
309 311 309 311 314 315 299 298 309 303 295 293 299 299 298 297 296 296 295 295 294 294 294 294 293 292 291 289 289 288 288 289 289 289 288 288 288 287 286 286 287 284 283 283
306 306 307 309 310 299 295 298 295 295 297 295 295 297 295 295 295 294 294 293 291 291 291 294 293 292 290 289 290 290 291 291 289 289 288 288 287 287 287 285 284 283 282 282
301 299 302 305 301 297 296 294 295 292 292 291 291 293 293 293 292 291 289 290 289 287 289 292 292 289 289 292 293 294 290 289 288 287 287 286 286 285 285 285 284 283 282 281
298 299 299 300 298 295 296 294 296 293 290 290 290 291 292 290 288 289 286 285 286 286 287 289 289 289 289 290 290 290 291 290 288 287 286 286 285 285 284 284 284 283 283 283
294 298 303 304 300 300 298 295 295 296 292 289 290 290 288 289 288 286 285 285 285 285 286 287 288 288 288 289 289 289 289 289 289 287 286 285 285 284 283 283 281 280 280 280

GFSCGP_925_thetae_063.txt.gz
Theta_e
310 311 312 312 309 311 311 312 313 313 312 312 311 310 311 308 304 304 304 303 303 303 303 303 303 305 306 309 312 313 312 314 315 317 317 317 318 318 319 319 320 320 319 318
311 311 311 311 311 311 313 314 312 311 311 311 311 311 309 308 306 307 307 306 304 303 299 300 302 305 306 309 312 312 311 313 314 314 314 315 314 313 314 314 315 315 315 313
312 313 311 312 312 313 312 312 312 313 312 309 310 311 310 309 308 306 306 307 306 305 302 299 301 303 305 308 311 311 310 311 311 311 311 310 308 306 305 304 307 307 306 304
312 312 313 312 313 312 313 310 312 313 315 316 311 317 312 310 309 307 308 306 306 304 302 300 301 302 304 308 310 311 309 308 310 310 309 311 307 301 299 300 300 299 297 295
313 313 313 314 313 312 314 311 312 313 313 312 312 313 313 311 311 310 310 309 307 304 301 300 301 302 303 307 309 309 308 308 310 308 308 305 301 299 299 297 294 292 291 290
310 310 312 313 312 312 310 312 311 310 311 315 313 314 314 312 313 311 311 309 305 302 300 299 302 302 303 307 308 308 307 306 308 306 304 303 303 298 294 292 291 289 288 289
312 312 310 310 312 311 312 314 316 315 314 317 311 312 315 312 311 310 311 309 306 300 298 298 300 302 303 305 306 307 306 302 303 303 303 302 300 298 297 293 291 288 287 287
313 313 311 309 313 314 312 313 315 314 315 314 312 316 315 309 308 307 306 306 302 298 297 298 300 302 302 303 304 305 302 301 302 302 301 299 298 295 291 292 290 288 288 287
313 314 310 309 310 312 311 314 312 315 299 309 313 312 311 309 309 308 307 305 300 299 297 298 299 301 301 302 303 303 302 301 302 301 300 298 296 293 291 290 288 288 287 287
313 314 311 310 311 310 311 310 315 312 313 312 314 314 316 315 312 309 309 306 302 298 297 296 298 299 299 301 301 301 301 301 300 299 299 298 295 293 290 288 288 287 286 286
312 313 312 310 311 313 312 313 312 312 311 314 314 318 310 313 312 311 309 307 303 298 296 295 296 297 298 299 299 300 299 298 297 297 296 294 292 290 289 288 287 287 286 286
311 314 310 312 309 308 311 313 312 315 314 313 314 319 310 311 310 309 309 307 302 298 295 294 294 294 294 295 296 297 296 296 297 296 294 292 291 289 288 287 287 286 286 286
314 317 318 318 314 309 311 312 313 313 310 318 316 319 305 308 309 308 306 305 300 297 294 292 292 292 292 293 293 294 294 295 296 295 293 291 290 289 288 287 287 286 285 285
316 316 316 323 319 313 312 311 311 315 317 317 317 319 315 311 309 309 307 304 300 297 294 293 292 292 292 292 292 292 293 293 295 294 292 290 289 289 288 287 286 286 285 285
317 318 317 316 315 313 312 313 313 315 315 318 319 317 317 314 307 307 309 304 300 298 294 293 293 292 292 291 291 291 291 292 293 291 290 289 289 288 287 287 286 285 285 284
316 315 315 319 317 315 316 312 311 313 315 315 316 317 315 312 310 310 308 307 302 300 297 295 294 292 291 291 290 290 290 290 290 289 289 288 287 287 286 286 285 284 284 284
316 317 318 323 316 316 318 317 317 312 313 314 316 315 314 313 309 310 310 307 304 302 300 298 295 294 292 292 291 290 290 289 289 289 288 288 287 287 286 285 284 284 283 283
313 317 317 322 318 322 318 313 315 316 315 311 312 313 313 312 310 309 307 307 305 302 300 299 297 295 293 292 291 290 289 289 288 288 287 287 287 286 285 284 284 283 283 283
311 313 317 321 322 319 316 309 311 315 317 315 315 314 314 313 307 312 304 304 305 303 302 301 300 297 294 292 291 289 288 288 288 287 287 287 286 285 285 284 283 283 283 282
306 312 314 316 322 324 314 305 304 309 318 301 312 314 313 306 311 314 300 297 298 297 298 299 299 297 294 291 290 288 287 287 287 287 287 286 287 286 285 285 284 283 283 283
308 311 314 316 319 315 309 298 302 315 314 292 297 299 302 305 307 298 295 296 294 295 295 296 295 293 292 291 290 287 287 287 287 287 287 287 287 286 286 285 284 283 283 283
310 312 313 315 317 316 302 300 309 305 295 295 296 298 298 298 297 295 295 295 293 293 292 292 291 290 290 290 288 287 286 287 287 287 287 286 286 285 285 285 284 284 284 284
311 306 309 312 312 300 296 300 296 296 297 296 297 297 296 295 296 295 295 293 290 289 290 291 291 289 288 289 289 287 287 287 287 287 286 286 286 286 286 288 287 286 285 284
303 300 307 309 304 300 296 294 294 292 292 291 291 292 294 294 292 291 288 291 290 287 289 291 291 289 288 288 289 289 289 289 290 289 289 289 288 288 287 287 286 285 283 282
302 300 302 301 300 297 297 295 295 293 290 290 290 291 291 291 288 289 287 285 287 285 287 291 291 289 288 290 290 291 292 292 291 290 289 287 287 286 285 285 285 285 285 284
297 300 303 305 301 303 301 296 294 292 291 290 291 290 288 289 289 287 285 285 285 285 286 288 288 288 287 289 289 289 288 288 288 287 286 286 286 285 284 283 282 281 281 281

GFSCGP_925_thetae_069.txt.gz
Theta_e
308 310 312 311 309 307 307 309 310 308 309 311 310 310 311 308 305 306 306 306 306 305 306 306 307 308 307 307 308 308 310 311 313 312 314 318 319 321 323 324 326 329 329 327
309 311 309 308 308 310 309 311 311 308 308 310 310 311 310 308 308 308 310 309 307 307 304 303 304 305 305 306 307 308 309 311 312 312 314 315 316 318 323 321 323 325 326 326
310 310 308 310 309 310 310 310 310 311 310 308 308 310 309 308 308 308 307 308 309 308 308 304 300 302 303 304 306 307 308 310 311 313 314 314 316 317 316 317 319 321 321 318
309 309 310 310 311 310 311 308 309 311 312 312 309 312 310 309 309 308 308 307 307 307 305 303 300 300 302 304 305 306 307 310 311 312 313 315 314 312 313 316 317 318 318 319
311 310 311 311 311 309 311 308 309 310 311 310 311 313 312 309 310 310 311 310 309 304 303 302 300 302 302 302 303 305 307 309 309 311 312 313 313 313 315 314 313 313 313 313
310 308 310 311 310 309 307 309 309 307 309 315 310 312 311 310 310 310 309 309 307 304 303 300 301 301 301 302 303 304 306 308 308 310 311 312 311 311 311 309 309 307 307 309
311 310 310 309 311 309 310 312 312 310 313 315 308 311 311 309 306 308 309 309 305 305 303 300 298 298 300 301 302 303 306 307 306 308 309 310 310 312 312 312 309 306 304 304
311 310 310 308 310 312 310 311 312 309 310 309 309 313 312 308 307 306 304 304 304 305 302 300 298 298 300 301 302 304 305 306 304 307 307 306 307 309 308 309 308 307 306 304
310 310 308 308 309 310 310 313 309 311 296 308 309 308 308 307 307 307 307 306 304 304 302 300 297 299 300 301 302 304 305 304 304 306 306 304 305 305 304 304 304 301 301 300
310 312 309 309 309 309 309 308 312 309 311 309 311 311 312 313 311 310 308 307 305 303 302 299 297 298 300 301 302 304 305 303 302 304 306 303 303 302 302 302 301 299 297 295
309 310 310 309 309 310 311 311 310 310 310 312 312 317 307 310 309 309 309 308 306 304 302 299 297 298 300 301 302 304 303 302 302 303 305 303 302 301 300 301 300 298 294 290
309 311 310 310 308 306 308 310 310 313 311 310 311 317 308 310 309 308 310 308 306 303 300 298 296 297 298 300 301 303 303 302 303 303 304 302 301 298 297 296 296 295 293 289
313 315 312 315 312 308 310 309 310 309 308 312 314 318 306 307 309 308 309 308 304 303 300 297 295 295 296 297 299 300 302 301 301 301 301 299 297 296 296 296 296 295 292 288
315 314 315 320 316 311 311 309 310 313 316 315 314 316 313 310 311 308 308 305 304 302 299 297 294 294 295 296 298 298 299 300 300 299 298 298 295 295 295 295 295 293 290 288
317 319 315 315 314 312 311 311 311 313 313 315 316 314 314 311 310 311 312 306 304 302 299 298 296 294 294 295 295 296 297 298 297 297 296 296 296 295 293 292 291 291 289 287
314 318 317 319 317 313 316 314 310 311 312 313 313 314 314 313 309 309 310 309 306 303 302 301 298 295 294 294 295 295 295 295 295 295 295 294 294 293 292 291 289 288 287 285
313 311 315 321 314 316 318 317 316 317 312 312 314 313 313 313 312 312 312 309 306 305 304 303 300 298 297 297 296 294 294 294 293 293 293 293 292 291 290 289 287 286 284 284
311 311 313 319 316 321 316 312 315 317 317 316 316 314 314 313 310 310 307 306 305 304 304 303 301 300 300 300 297 295 294 293 292 291 291 291 291 290 288 287 286 285 284 283
312 314 316 317 317 317 316 309 310 314 316 314 315 315 314 313 309 309 304 304 305 303 301 299 299 298 299 299 297 294 292 291 290 290 290 290 290 288 287 286 285 284 283 282
310 312 314 316 317 317 312 308 305 310 318 310 312 313 313 308 309 313 301 298 298 295 295 294 294 295 296 296 294 292 290 289 288 289 289 289 289 289 287 286 284 283 282 281
312 313 315 316 316 315 306 299 304 317 314 296 305 310 310 309 308 302 297 296 294 294 293 292 292 291 291 292 291 290 289 288 289 288 289 288 288 288 287 285 283 282 282 282
306 309 312 315 316 318 298 303 311 302 298 294 299 303 304 303 299 298 297 296 294 293 291 290 289 288 289 290 290 288 288 288 288 288 288 287 287 286 285 284 282 282 282 282
309 305 309 309 309 301 299 300 297 295 295 297 296 297 298 297 296 296 296 294 292 290 288 287 287 287 287 289 290 287 287 287 287 287 286 286 285 285 285 284 283 282 282 281
304 301 306 306 306 303 302 300 296 296 295 295 292 294 294 296 293 294 290 292 291 286 287 287 287 286 286 287 288 288 287 287 286 286 285 285 285 284 284 283 283 283 283 282
300 301 302 301 300 299 300 298 300 299 294 293 291 290 291 293 290 291 288 286 287 286 288 288 287 286 286 287 287 287 287 287 286 286 285 285 285 285 284 284 284 284 283 283
297 298 301 300 298 299 300 296 295 297 296 293 292 291 289 290 290 287 285 284 284 285 286 285 284 283 283 285 286 287 287 288 288 287 286 286 285 285 285 284 284 284 284 284

GFSCGP_925_thetae_072.txt.gz
Theta_e
313 317 317 316 317 313 313 314 314 314 312 315 316 316 316 316 315 315 316 316 316 316 315 313 311 310 310 312 312 312 312 314 315 316 316 317 316 321 326 328 328 329 331 331
314 315 315 313 314 314 314 315 315 315 312 313 315 316 316 316 316 316 316 316 317 317 316 314 311 309 308 309 310 311 312 313 314 314 315 315 315 315 322 323 324 326 327 328
314 314 313 313 313 314 315 316 315 314 314 312 314 315 316 315 314 314 314 315 315 316 316 316 312 309 308 308 309 310 311 313 313 314 314 309 312 317 319 320 321 322 324 323
314 313 312 313 313 313 314 313 314 314 315 315 313 314 315 315 315 314 315 316 316 316 315 314 313 309 308 308 308 309 310 312 313 313 311 311 312 313 315 317 319 320 320 320
313 313 313 313 313 313 314 312 313 314 316 316 315 315 314 313 315 315 316 318 317 316 314 313 311 309 309 307 308 308 309 311 311 312 311 312 313 315 314 310 316 318 318 318
312 310 312 314 310 312 311 313 313 313 315 317 315 315 314 316 315 316 315 315 313 312 312 310 308 307 307 306 306 307 308 310 310 310 310 312 313 313 308 307 312 314 315 314
313 313 311 311 313 311 313 316 315 317 320 318 314 316 315 315 314 315 316 317 312 311 312 310 308 306 305 305 305 306 308 309 310 308 309 310 312 310 309 312 313 311 311 311
314 314 313 312 314 315 314 315 318 325 317 314 312 316 316 315 314 314 313 313 311 310 311 311 309 306 305 304 305 306 307 308 309 307 308 308 310 308 307 311 312 311 313 313
313 313 310 309 311 313 313 315 313 315 308 316 313 315 315 314 314 314 313 313 313 312 311 311 307 305 304 304 305 306 306 307 308 306 307 307 307 306 306 310 310 310 309 310
313 314 311 310 310 310 312 313 315 315 323 321 315 315 316 317 316 315 314 313 314 313 311 309 306 304 304 304 304 305 306 306 306 305 305 305 304 304 305 307 307 307 306 306
313 313 313 311 313 314 313 314 313 314 317 324 320 317 317 318 316 315 315 313 313 312 312 310 306 303 303 303 304 305 306 306 305 304 304 303 302 304 304 304 304 304 303 304
313 315 318 315 310 309 312 314 314 316 317 315 316 319 312 314 313 313 313 312 311 309 310 308 305 303 303 303 303 305 306 306 304 303 303 302 301 304 302 302 302 302 301 300
313 317 322 321 315 310 312 312 313 314 316 322 323 321 310 310 313 312 313 313 311 309 307 306 304 304 304 303 303 303 304 304 302 302 301 300 299 300 301 301 301 300 298 297
314 316 321 324 320 316 315 314 313 315 319 318 319 318 318 314 314 314 314 313 312 311 308 308 306 305 303 302 303 302 302 302 301 300 299 299 298 297 300 299 299 298 297 296
312 315 316 318 319 314 315 316 314 315 316 318 319 318 317 316 315 315 315 314 312 311 308 307 307 306 303 301 300 299 300 300 300 299 298 298 297 297 297 295 294 293 292 292
312 314 312 315 317 317 318 317 314 315 315 316 316 317 316 316 314 313 314 315 314 314 313 309 306 304 302 300 300 299 298 298 298 298 297 297 296 295 295 294 292 291 291 290
313 314 316 316 315 318 319 319 320 317 315 315 317 317 316 316 315 314 314 314 314 314 313 312 309 307 304 303 300 299 298 297 296 296 296 296 295 294 293 292 291 289 288 287
313 312 313 318 317 321 318 313 317 319 318 317 316 316 316 316 315 313 313 314 313 312 310 309 307 306 304 302 300 298 296 295 294 294 294 294 293 292 292 290 290 288 287 286
312 313 315 317 318 317 315 313 316 317 318 316 317 316 316 316 315 316 314 310 311 309 306 305 302 301 300 299 298 297 294 293 292 292 292 292 291 290 290 288 287 287 286 285
309 312 313 314 315 315 311 310 309 313 317 315 316 317 317 316 317 316 306 304 303 300 299 299 297 296 296 296 296 294 292 291 291 291 291 291 290 290 289 288 287 286 285 284
308 311 313 313 314 312 310 304 310 317 314 301 301 306 310 314 315 310 301 300 298 297 296 293 292 293 292 292 292 291 290 290 290 290 290 290 289 289 288 287 286 285 283 283
306 309 312 313 314 313 302 307 311 307 303 300 301 301 301 304 306 303 301 299 297 296 294 290 290 289 290 291 291 289 289 289 289 288 288 287 287 287 286 286 284 284 283 282
306 308 308 309 310 303 301 303 302 300 301 303 299 298 298 299 300 298 299 297 295 293 290 288 289 287 288 289 289 289 287 288 288 287 287 286 286 285 285 284 283 283 282 282
303 302 306 302 305 304 302 303 300 299 300 301 297 294 294 295 296 294 294 294 293 290 288 287 287 287 287 287 288 288 287 287 287 286 285 285 285 284 283 283 283 283 283 283
300 301 302 302 302 302 302 302 303 301 299 298 295 293 294 294 295 292 291 290 290 288 287 287 287 287 286 286 286 286 286 287 286 286 285 285 284 284 283 283 283 283 283 284
299 299 300 300 300 299 299 298 297 297 298 298 297 296 293 292 294 290 290 289 287 288 286 286 285 284 283 284 285 286 287 287 286 285 285 285 284 284 284 284 284 283 284 284

GFSCGP_925_thetae_075.txt.gz
Theta_e
316 315 315 316 315 315 315 315 315 315 315 315 316 316 316 316 316 317 317 317 317 317 317 318 316 315 317 321 323 325 326 324 324 324 324 324 327 327 325 326 328 329 330 330
317 316 316 316 317 317 316 315 315 315 316 314 316 316 316 316 317 317 317 317 318 317 317 318 318 316 314 316 320 320 320 320 320 320 320 320 320 320 320 323 327 328 329 329
316 315 315 316 315 315 315 315 315 315 316 315 316 317 317 317 317 317 317 317 317 317 317 318 318 316 314 313 315 317 317 316 317 317 317 317 317 316 315 314 323 326 328 328
316 315 314 315 315 315 314 314 315 315 315 314 315 316 315 315 316 317 317 317 317 318 318 317 317 317 315 314 313 313 315 315 316 316 316 316 314 313 312 313 317 323 324 324
314 315 315 314 314 314 315 315 315 315 317 317 316 316 315 316 316 316 316 319 319 319 319 318 317 316 315 313 313 312 313 313 314 316 315 315 312 313 315 315 313 319 321 319
315 312 314 314 313 314 314 315 316 316 316 317 315 316 315 316 317 317 317 317 317 316 316 315 314 313 312 312 311 311 312 312 313 314 315 314 313 314 316 315 312 316 317 317
314 314 313 313 314 313 315 315 315 317 320 318 315 317 316 316 316 316 316 317 317 315 315 315 313 310 310 310 310 310 311 311 312 313 314 313 313 314 315 315 311 311 313 315
314 315 314 313 315 315 316 315 319 326 320 318 314 316 315 316 316 316 316 317 317 315 314 314 314 312 309 308 309 309 309 310 311 312 312 312 312 314 314 312 310 308 311 314
314 315 313 313 314 314 315 317 316 318 318 317 315 316 316 316 315 315 316 316 316 317 316 315 314 310 309 308 308 309 309 310 310 311 311 310 311 312 313 311 310 308 308 310
315 317 313 311 312 313 314 314 315 315 325 322 316 317 316 318 317 317 316 316 316 316 316 314 311 309 308 308 308 308 309 309 309 310 310 309 310 310 311 309 307 306 308 309
314 315 315 312 313 314 313 314 314 315 317 321 320 317 317 319 318 318 318 316 315 315 316 314 311 308 308 307 307 308 308 308 308 309 308 308 308 309 308 308 306 305 306 309
315 315 319 316 314 313 313 314 314 317 318 316 317 318 318 318 316 316 316 315 314 312 314 313 310 308 307 307 307 308 308 308 308 308 307 307 306 306 305 305 303 303 304 306
315 317 321 322 316 313 313 314 314 315 317 324 321 320 315 314 316 316 316 316 315 312 311 310 309 309 309 308 307 307 308 308 308 307 306 305 305 304 303 301 300 302 302 302
311 313 320 324 322 320 316 315 315 316 319 318 319 318 317 317 317 317 316 316 316 314 313 312 312 311 309 308 308 307 307 307 307 305 304 304 303 303 300 299 299 302 302 300
312 316 315 314 315 315 315 319 318 316 316 318 318 318 317 317 317 317 317 317 316 315 314 313 312 312 310 308 307 306 305 305 304 304 302 302 302 301 299 299 298 300 300 298
312 316 315 314 313 313 314 315 315 317 319 316 317 318 316 316 317 317 317 316 315 315 315 315 312 310 309 308 306 305 304 303 302 303 302 301 301 299 298 297 297 298 297 295
312 311 315 314 314 315 316 315 315 316 318 317 318 317 316 317 317 317 317 316 316 315 315 315 314 314 309 307 304 303 303 301 300 300 300 300 299 298 297 296 295 294 293 292
312 313 315 313 313 314 312 314 316 318 318 319 318 317 317 317 316 317 316 316 315 314 313 313 313 311 309 306 305 303 301 300 299 298 297 297 297 296 295 294 293 292 291 290
307 311 312 313 313 312 312 314 315 318 318 317 318 318 317 316 315 316 316 315 315 315 311 307 306 304 303 302 301 300 298 296 296 295 295 295 295 294 293 292 291 290 289 288
306 307 310 311 312 311 309 309 310 314 316 307 306 307 306 306 318 318 310 308 308 305 303 302 300 298 298 297 296 296 295 294 293 293 293 293 292 292 292 291 290 289 288 287
308 310 310 311 312 311 309 306 310 312 313 302 304 304 304 305 306 304 306 305 302 299 298 296 296 294 293 293 293 293 292 292 292 291 291 290 290 290 290 289 288 287 286 285
305 308 311 310 311 311 305 307 312 305 302 304 304 303 303 303 302 301 300 302 300 298 296 293 292 291 290 291 291 291 290 289 289 289 289 288 288 288 288 287 286 286 285 284
302 302 305 308 308 305 304 304 304 303 302 301 302 302 301 299 300 298 297 298 297 293 291 289 290 289 289 289 290 290 287 288 288 288 287 286 286 286 286 286 285 284 283 283
304 304 304 304 305 304 305 304 302 302 302 300 301 301 299 297 297 296 295 294 294 292 290 288 288 289 288 287 288 288 287 287 287 286 286 285 285 285 284 284 284 284 284 284
301 301 303 303 302 302 301 301 302 303 301 300 300 299 297 296 295 298 294 292 291 290 289 288 288 287 286 286 286 286 286 287 287 286 285 285 285 285 284 284 284 284 284 284
299 299 299 300 299 300 299 299 300 299 299 299 299 299 297 295 296 294 292 291 290 290 289 288 287 286 285 285 284 286 286 286 286 286 286 285 285 285 284 284 284 284 284 284